Year,Month,Day,Hour,Minute,Value (Times are PST for temperature in C)
2009,05,19,00,00,9.50
2009,05,19,00,01,9.50
2009,05,19,00,06,9.40
2009,05,19,00,07,9.40
2009,05,19,00,08,9.30
2009,05,19,00,09,9.30
2009,05,19,00,10,9.30
2009,05,19,00,11,9.30
2009,05,19,00,12,9.20
2009,05,19,00,13,9.20
2009,05,19,00,14,9.20
2009,05,19,00,15,9.20
2009,05,19,00,16,9.20
2009,05,19,00,17,9.10
2009,05,19,00,18,9.10
2009,05,19,00,19,9.10
2009,05,19,00,20,9.00
2009,05,19,00,21,9.00
2009,05,19,00,22,8.90
2009,05,19,00,23,8.90
2009,05,19,00,24,8.80
2009,05,19,00,25,8.80
2009,05,19,00,26,8.80
2009,05,19,00,27,8.70
2009,05,19,00,28,8.70
2009,05,19,00,29,8.70
2009,05,19,00,30,8.60
2009,05,19,00,31,8.60
2009,05,19,00,32,8.60
2009,05,19,00,33,8.60
2009,05,19,00,34,8.50
2009,05,19,00,35,8.50
2009,05,19,00,36,8.50
2009,05,19,00,37,8.50
2009,05,19,00,38,8.40
2009,05,19,00,39,8.40
2009,05,19,00,40,8.40
2009,05,19,00,41,8.40
2009,05,19,00,42,8.30
2009,05,19,00,43,8.30
2009,05,19,00,44,8.30
2009,05,19,00,45,8.30
2009,05,19,00,46,8.30
2009,05,19,00,47,8.20
2009,05,19,00,48,8.20
2009,05,19,00,49,8.20
2009,05,19,00,50,8.20
2009,05,19,00,51,8.20
2009,05,19,00,52,8.20
2009,05,19,00,53,8.20
2009,05,19,00,54,8.10
2009,05,19,00,55,8.10
2009,05,19,00,56,8.00
2009,05,19,00,57,8.00
2009,05,19,00,58,7.90
2009,05,19,00,59,7.80
2009,05,19,01,00,7.80
2009,05,19,01,01,7.80
2009,05,19,01,02,7.80
2009,05,19,01,03,7.70
2009,05,19,01,04,7.70
2009,05,19,01,05,7.70
2009,05,19,01,06,7.70
2009,05,19,01,07,7.60
2009,05,19,01,08,7.60
2009,05,19,01,09,7.60
2009,05,19,01,10,7.60
2009,05,19,01,11,7.60
2009,05,19,01,12,7.60
2009,05,19,01,13,7.50
2009,05,19,01,14,7.50
2009,05,19,01,15,7.50
2009,05,19,01,16,7.50
2009,05,19,01,17,7.50
2009,05,19,01,18,7.50
2009,05,19,01,19,7.50
2009,05,19,01,20,7.50
2009,05,19,01,21,7.50
2009,05,19,01,22,7.50
2009,05,19,01,23,7.50
2009,05,19,01,24,7.50
2009,05,19,01,25,7.50
2009,05,19,01,26,7.50
2009,05,19,01,27,7.40
2009,05,19,01,28,7.40
2009,05,19,01,29,7.40
2009,05,19,01,30,7.40
2009,05,19,01,31,7.30
2009,05,19,01,32,7.30
2009,05,19,01,33,7.30
2009,05,19,01,34,7.30
2009,05,19,01,35,7.30
2009,05,19,01,36,7.20
2009,05,19,01,37,7.20
2009,05,19,01,38,7.10
2009,05,19,01,39,7.10
2009,05,19,01,40,7.00
2009,05,19,01,41,7.00
2009,05,19,01,42,7.00
2009,05,19,01,43,7.00
2009,05,19,01,44,7.00
2009,05,19,01,45,7.00
2009,05,19,01,46,7.00
2009,05,19,01,47,7.00
2009,05,19,01,48,7.10
2009,05,19,01,49,7.10
2009,05,19,01,50,7.10
2009,05,19,01,51,7.10
2009,05,19,01,52,7.10
2009,05,19,01,53,7.10
2009,05,19,01,54,7.00
2009,05,19,01,55,7.00
2009,05,19,01,56,7.00
2009,05,19,01,57,7.00
2009,05,19,01,58,7.00
2009,05,19,01,59,7.00
2009,05,19,02,00,7.00
2009,05,19,02,01,7.00
2009,05,19,02,02,7.00
2009,05,19,02,03,7.00
2009,05,19,02,04,7.00
2009,05,19,02,05,7.00
2009,05,19,02,06,7.10
2009,05,19,02,07,7.10
2009,05,19,02,08,7.10
2009,05,19,02,09,7.10
2009,05,19,02,10,7.20
2009,05,19,02,11,7.20
2009,05,19,02,12,7.20
2009,05,19,02,13,7.30
2009,05,19,02,14,7.30
2009,05,19,02,15,7.30
2009,05,19,02,16,7.30
2009,05,19,02,17,7.30
2009,05,19,02,18,7.30
2009,05,19,02,19,7.20
2009,05,19,02,20,7.20
2009,05,19,02,21,7.20
2009,05,19,02,22,7.20
2009,05,19,02,23,7.20
2009,05,19,02,24,7.20
2009,05,19,02,25,7.10
2009,05,19,02,26,7.10
2009,05,19,02,27,7.10
2009,05,19,02,28,7.10
2009,05,19,02,29,7.00
2009,05,19,02,30,7.00
2009,05,19,02,31,7.00
2009,05,19,02,32,7.00
2009,05,19,02,33,7.00
2009,05,19,02,34,7.00
2009,05,19,02,35,7.00
2009,05,19,02,36,7.00
2009,05,19,02,37,7.10
2009,05,19,02,38,7.10
2009,05,19,02,39,7.10
2009,05,19,02,40,7.10
2009,05,19,02,41,7.10
2009,05,19,02,42,7.00
2009,05,19,02,43,7.00
2009,05,19,02,44,7.00
2009,05,19,02,45,7.00
2009,05,19,02,46,7.00
2009,05,19,02,47,7.00
2009,05,19,02,48,6.90
2009,05,19,02,49,6.90
2009,05,19,02,50,6.90
2009,05,19,02,51,7.00
2009,05,19,02,52,7.00
2009,05,19,02,53,7.00
2009,05,19,02,54,7.00
2009,05,19,02,55,7.10
2009,05,19,02,56,7.10
2009,05,19,02,57,7.10
2009,05,19,02,58,7.10
2009,05,19,02,59,7.10
2009,05,19,03,00,7.10
2009,05,19,03,01,7.10
2009,05,19,03,02,7.10
2009,05,19,03,03,7.10
2009,05,19,03,04,7.10
2009,05,19,03,05,7.10
2009,05,19,03,06,7.10
2009,05,19,03,07,7.10
2009,05,19,03,08,7.10
2009,05,19,03,09,7.10
2009,05,19,03,10,7.00
2009,05,19,03,11,7.00
2009,05,19,03,12,7.00
2009,05,19,03,13,7.00
2009,05,19,03,14,7.00
2009,05,19,03,15,7.00
2009,05,19,03,16,7.00
2009,05,19,03,17,7.00
2009,05,19,03,18,7.00
2009,05,19,03,19,6.90
2009,05,19,03,20,6.90
2009,05,19,03,21,6.90
2009,05,19,03,22,6.90
2009,05,19,03,23,6.80
2009,05,19,03,24,6.80
2009,05,19,03,25,6.80
2009,05,19,03,26,6.80
2009,05,19,03,27,6.80
2009,05,19,03,28,6.80
2009,05,19,03,29,6.80
2009,05,19,03,30,6.80
2009,05,19,03,31,6.80
2009,05,19,03,32,6.80
2009,05,19,03,33,6.70
2009,05,19,03,34,6.70
2009,05,19,03,35,6.70
2009,05,19,03,36,6.70
2009,05,19,03,37,6.70
2009,05,19,03,38,6.60
2009,05,19,03,39,6.60
2009,05,19,03,40,6.60
2009,05,19,03,41,6.60
2009,05,19,03,42,6.60
2009,05,19,03,43,6.60
2009,05,19,03,44,6.60
2009,05,19,03,45,6.60
2009,05,19,03,46,6.60
2009,05,19,03,47,6.60
2009,05,19,03,48,6.60
2009,05,19,03,49,6.60
2009,05,19,03,50,6.60
2009,05,19,03,51,6.60
2009,05,19,03,52,6.60
2009,05,19,03,53,6.60
2009,05,19,03,54,6.60
2009,05,19,03,55,6.60
2009,05,19,03,56,6.60
2009,05,19,03,57,6.60
2009,05,19,03,58,6.70
2009,05,19,03,59,6.70
2009,05,19,04,00,6.70
2009,05,19,04,01,6.70
2009,05,19,04,02,6.80
2009,05,19,04,03,6.80
2009,05,19,04,04,6.80
2009,05,19,04,05,6.80
2009,05,19,04,06,6.70
2009,05,19,04,07,6.70
2009,05,19,04,08,6.70
2009,05,19,04,09,6.70
2009,05,19,04,10,6.70
2009,05,19,04,11,6.70
2009,05,19,04,12,6.70
2009,05,19,04,13,6.70
2009,05,19,04,14,6.70
2009,05,19,04,15,6.70
2009,05,19,04,16,6.70
2009,05,19,04,17,6.70
2009,05,19,04,18,6.70
2009,05,19,04,19,6.70
2009,05,19,04,20,6.70
2009,05,19,04,21,6.70
2009,05,19,04,22,6.70
2009,05,19,04,23,6.60
2009,05,19,04,24,6.60
2009,05,19,04,25,6.60
2009,05,19,04,26,6.60
2009,05,19,04,27,6.60
2009,05,19,04,28,6.60
2009,05,19,04,29,6.60
2009,05,19,04,30,6.60
2009,05,19,04,31,6.60
2009,05,19,04,32,6.60
2009,05,19,04,33,6.60
2009,05,19,04,34,6.60
2009,05,19,04,35,6.50
2009,05,19,04,36,6.40
2009,05,19,04,37,6.40
2009,05,19,04,38,6.40
2009,05,19,04,39,6.30
2009,05,19,04,40,6.30
2009,05,19,04,41,6.20
2009,05,19,04,42,6.20
2009,05,19,04,43,6.20
2009,05,19,04,44,6.20
2009,05,19,04,45,6.10
2009,05,19,04,46,6.10
2009,05,19,04,47,6.00
2009,05,19,04,48,6.00
2009,05,19,04,49,6.00
2009,05,19,04,50,6.00
2009,05,19,04,51,6.00
2009,05,19,04,52,5.90
2009,05,19,04,53,5.90
2009,05,19,04,54,5.90
2009,05,19,04,55,5.90
2009,05,19,04,56,5.90
2009,05,19,04,57,5.80
2009,05,19,04,58,5.80
2009,05,19,04,59,5.80
2009,05,19,05,00,5.80
2009,05,19,05,01,5.80
2009,05,19,05,02,5.70
2009,05,19,05,03,5.70
2009,05,19,05,04,5.70
2009,05,19,05,05,5.70
2009,05,19,05,06,5.70
2009,05,19,05,07,5.70
2009,05,19,05,08,5.70
2009,05,19,05,09,5.70
2009,05,19,05,10,5.70
2009,05,19,05,11,5.70
2009,05,19,05,12,5.70
2009,05,19,05,13,5.70
2009,05,19,05,14,5.70
2009,05,19,05,15,5.70
2009,05,19,05,16,5.70
2009,05,19,05,17,5.70
2009,05,19,05,18,5.60
2009,05,19,05,19,5.60
2009,05,19,05,20,5.60
2009,05,19,05,21,5.70
2009,05,19,05,22,5.70
2009,05,19,05,23,5.70
2009,05,19,05,24,5.60
2009,05,19,05,25,5.60
2009,05,19,05,26,5.60
2009,05,19,05,27,5.60
2009,05,19,05,28,5.60
2009,05,19,05,29,5.60
2009,05,19,05,30,5.60
2009,05,19,05,31,5.60
2009,05,19,05,32,5.60
2009,05,19,05,33,5.60
2009,05,19,05,34,5.60
2009,05,19,05,35,5.60
2009,05,19,05,36,5.60
2009,05,19,05,37,5.50
2009,05,19,05,38,5.50
2009,05,19,05,39,5.50
2009,05,19,05,40,5.50
2009,05,19,05,41,5.50
2009,05,19,05,42,5.50
2009,05,19,05,43,5.50
2009,05,19,05,44,5.50
2009,05,19,05,45,5.50
2009,05,19,05,46,5.50
2009,05,19,05,47,5.50
2009,05,19,05,48,5.50
2009,05,19,05,49,5.50
2009,05,19,05,50,5.50
2009,05,19,05,51,5.50
2009,05,19,05,52,5.50
2009,05,19,05,53,5.60
2009,05,19,05,54,5.60
2009,05,19,05,55,5.60
2009,05,19,05,56,5.60
2009,05,19,05,57,5.60
2009,05,19,05,58,5.60
2009,05,19,05,59,5.60
2009,05,19,06,00,5.60
2009,05,19,06,01,5.60
2009,05,19,06,02,5.60
2009,05,19,06,03,5.60
2009,05,19,06,04,5.60
2009,05,19,06,05,5.60
2009,05,19,06,06,5.50
2009,05,19,06,07,5.50
2009,05,19,06,08,5.50
2009,05,19,06,09,5.50
2009,05,19,06,10,5.50
2009,05,19,06,11,5.60
2009,05,19,06,12,5.60
2009,05,19,06,13,5.60
2009,05,19,06,14,5.60
2009,05,19,06,15,5.60
2009,05,19,06,16,5.60
2009,05,19,06,17,5.70
2009,05,19,06,18,5.70
2009,05,19,06,19,5.70
2009,05,19,06,20,5.70
2009,05,19,06,21,5.70
2009,05,19,06,22,5.70
2009,05,19,06,23,5.70
2009,05,19,06,24,5.70
2009,05,19,06,25,5.70
2009,05,19,06,26,5.70
2009,05,19,06,27,5.70
2009,05,19,06,28,5.70
2009,05,19,06,29,5.70
2009,05,19,06,30,5.70
2009,05,19,06,31,5.80
2009,05,19,06,32,5.80
2009,05,19,06,33,5.90
2009,05,19,06,34,5.90
2009,05,19,06,35,6.00
2009,05,19,06,36,6.00
2009,05,19,06,37,6.00
2009,05,19,06,38,6.10
2009,05,19,06,39,6.10
2009,05,19,06,40,6.10
2009,05,19,06,41,6.10
2009,05,19,06,42,6.20
2009,05,19,06,43,6.20
2009,05,19,06,44,6.20
2009,05,19,06,45,6.20
2009,05,19,06,46,6.20
2009,05,19,06,47,6.20
2009,05,19,06,48,6.20
2009,05,19,06,49,6.20
2009,05,19,06,50,6.20
2009,05,19,06,51,6.20
2009,05,19,06,52,6.20
2009,05,19,06,53,6.20
2009,05,19,06,54,6.20
2009,05,19,06,55,6.20
2009,05,19,06,56,6.20
2009,05,19,06,57,6.20
2009,05,19,06,58,6.20
2009,05,19,06,59,6.30
2009,05,19,07,00,6.30
2009,05,19,07,01,6.30
2009,05,19,07,02,6.40
2009,05,19,07,03,6.40
2009,05,19,07,04,6.40
2009,05,19,07,05,6.60
2009,05,19,07,06,6.60
2009,05,19,07,07,6.60
2009,05,19,07,08,6.70
2009,05,19,07,09,6.80
2009,05,19,07,10,6.80
2009,05,19,07,11,6.80
2009,05,19,07,12,6.80
2009,05,19,07,13,6.90
2009,05,19,07,14,6.90
2009,05,19,07,15,7.00
2009,05,19,07,16,7.00
2009,05,19,07,17,7.10
2009,05,19,07,18,7.10
2009,05,19,07,19,7.20
2009,05,19,07,20,7.30
2009,05,19,07,21,7.30
2009,05,19,07,22,7.30
2009,05,19,07,23,7.40
2009,05,19,07,24,7.50
2009,05,19,07,25,7.50
2009,05,19,07,26,7.60
2009,05,19,07,27,7.70
2009,05,19,07,28,7.70
2009,05,19,07,29,7.80
2009,05,19,07,30,7.80
2009,05,19,07,31,7.90
2009,05,19,07,32,7.90
2009,05,19,07,33,8.00
2009,05,19,07,34,8.00
2009,05,19,07,35,8.10
2009,05,19,07,36,8.10
2009,05,19,07,37,8.20
2009,05,19,07,38,8.20
2009,05,19,07,39,8.20
2009,05,19,07,40,8.30
2009,05,19,07,41,8.40
2009,05,19,07,42,8.40
2009,05,19,07,43,8.40
2009,05,19,07,44,8.50
2009,05,19,07,45,8.50
2009,05,19,07,46,8.60
2009,05,19,07,47,8.60
2009,05,19,07,48,8.70
2009,05,19,07,49,8.70
2009,05,19,07,50,8.80
2009,05,19,07,51,8.90
2009,05,19,07,52,9.00
2009,05,19,07,53,9.00
2009,05,19,07,54,9.10
2009,05,19,07,55,9.20
2009,05,19,07,56,9.30
2009,05,19,07,57,9.40
2009,05,19,07,58,9.40
2009,05,19,07,59,9.50
2009,05,19,08,00,9.60
2009,05,19,08,01,9.70
2009,05,19,08,02,9.70
2009,05,19,08,03,9.80
2009,05,19,08,04,9.90
2009,05,19,08,05,9.90
2009,05,19,08,06,10.00
2009,05,19,08,07,10.10
2009,05,19,08,08,10.10
2009,05,19,08,09,10.20
2009,05,19,08,10,10.20
2009,05,19,08,11,10.30
2009,05,19,08,12,10.30
2009,05,19,08,13,10.40
2009,05,19,08,14,10.40
2009,05,19,08,15,10.50
2009,05,19,08,16,10.60
2009,05,19,08,17,10.60
2009,05,19,08,18,10.60
2009,05,19,08,19,10.70
2009,05,19,08,20,10.70
2009,05,19,08,21,10.80
2009,05,19,08,22,10.80
2009,05,19,08,23,10.80
2009,05,19,08,24,10.80
2009,05,19,08,25,10.80
2009,05,19,08,26,10.80
2009,05,19,08,27,10.90
2009,05,19,08,28,10.90
2009,05,19,08,29,10.90
2009,05,19,08,30,10.90
2009,05,19,08,31,10.90
2009,05,19,08,32,10.90
2009,05,19,08,33,11.00
2009,05,19,08,34,11.10
2009,05,19,08,35,11.10
2009,05,19,08,36,11.10
2009,05,19,08,37,11.10
2009,05,19,08,38,11.10
2009,05,19,08,39,11.20
2009,05,19,08,40,11.20
2009,05,19,08,41,11.20
2009,05,19,08,42,11.20
2009,05,19,08,43,11.20
2009,05,19,08,44,11.30
2009,05,19,08,45,11.30
2009,05,19,08,46,11.30
2009,05,19,08,47,11.30
2009,05,19,08,48,11.30
2009,05,19,08,49,11.30
2009,05,19,08,50,11.30
2009,05,19,08,51,11.30
2009,05,19,08,52,11.30
2009,05,19,08,53,11.30
2009,05,19,08,54,11.30
2009,05,19,08,55,11.30
2009,05,19,08,56,11.30
2009,05,19,08,57,11.40
2009,05,19,08,58,11.40
2009,05,19,08,59,11.40
2009,05,19,09,00,11.40
2009,05,19,09,01,11.40
2009,05,19,09,02,11.40
2009,05,19,09,03,11.40
2009,05,19,09,04,11.40
2009,05,19,09,05,11.40
2009,05,19,09,06,11.40
2009,05,19,09,07,11.40
2009,05,19,09,08,11.40
2009,05,19,09,09,11.40
2009,05,19,09,10,11.50
2009,05,19,09,11,11.60
2009,05,19,09,12,11.60
2009,05,19,09,13,11.60
2009,05,19,09,14,11.60
2009,05,19,09,15,11.60
2009,05,19,09,16,11.60
2009,05,19,09,17,11.60
2009,05,19,09,18,11.70
2009,05,19,09,19,11.70
2009,05,19,09,20,11.70
2009,05,19,09,21,11.80
2009,05,19,09,22,11.80
2009,05,19,09,23,11.80
2009,05,19,09,24,11.80
2009,05,19,09,25,11.80
2009,05,19,09,26,11.80
2009,05,19,09,27,11.80
2009,05,19,09,28,11.80
2009,05,19,09,29,11.80
2009,05,19,09,30,11.90
2009,05,19,09,31,11.90
2009,05,19,09,32,11.90
2009,05,19,09,33,11.90
2009,05,19,09,34,11.90
2009,05,19,09,35,11.90
2009,05,19,09,36,12.00
2009,05,19,09,37,12.00
2009,05,19,09,38,12.00
2009,05,19,09,39,12.10
2009,05,19,09,40,12.10
2009,05,19,09,41,12.20
2009,05,19,09,42,12.20
2009,05,19,09,43,12.10
2009,05,19,09,44,12.20
2009,05,19,09,45,12.10
2009,05,19,09,46,12.20
2009,05,19,09,47,12.20
2009,05,19,09,48,12.20
2009,05,19,09,49,12.30
2009,05,19,09,50,12.30
2009,05,19,09,51,12.40
2009,05,19,09,52,12.50
2009,05,19,09,53,12.60
2009,05,19,09,54,12.60
2009,05,19,09,55,12.70
2009,05,19,09,56,12.70
2009,05,19,09,57,12.80
2009,05,19,09,58,12.80
2009,05,19,09,59,12.80
2009,05,19,10,00,12.80
2009,05,19,10,01,12.80
2009,05,19,10,02,12.80
2009,05,19,10,03,12.90
2009,05,19,10,04,12.90
2009,05,19,10,05,12.90
2009,05,19,10,06,12.90
2009,05,19,10,07,12.80
2009,05,19,10,08,12.80
2009,05,19,10,09,12.80
2009,05,19,10,10,12.70
2009,05,19,10,11,12.70
2009,05,19,10,12,12.60
2009,05,19,10,13,12.60
2009,05,19,10,14,12.50
2009,05,19,10,15,12.50
2009,05,19,10,16,12.50
2009,05,19,10,17,12.40
2009,05,19,10,18,12.40
2009,05,19,10,19,12.30
2009,05,19,10,20,12.30
2009,05,19,10,21,12.20
2009,05,19,10,22,12.10
2009,05,19,10,23,12.00
2009,05,19,10,24,12.00
2009,05,19,10,25,12.00
2009,05,19,10,26,11.90
2009,05,19,10,27,11.90
2009,05,19,10,28,11.90
2009,05,19,10,29,11.90
2009,05,19,10,30,11.90
2009,05,19,10,31,12.00
2009,05,19,10,32,12.00
2009,05,19,10,33,12.10
2009,05,19,10,34,12.10
2009,05,19,10,35,12.10
2009,05,19,10,36,12.10
2009,05,19,10,37,12.20
2009,05,19,10,38,12.10
2009,05,19,10,39,12.20
2009,05,19,10,40,12.10
2009,05,19,10,41,12.10
2009,05,19,10,42,12.20
2009,05,19,10,43,12.10
2009,05,19,10,44,12.10
2009,05,19,10,45,12.10
2009,05,19,10,46,12.10
2009,05,19,10,47,12.20
2009,05,19,10,48,12.20
2009,05,19,10,49,12.20
2009,05,19,10,50,12.20
2009,05,19,10,51,12.30
2009,05,19,10,52,12.30
2009,05,19,10,53,12.30
2009,05,19,10,54,12.30
2009,05,19,10,55,12.40
2009,05,19,10,56,12.40
2009,05,19,10,57,12.40
2009,05,19,10,58,12.50
2009,05,19,10,59,12.50
2009,05,19,11,00,12.40
2009,05,19,11,01,12.40
2009,05,19,11,02,12.40
2009,05,19,11,03,12.40
2009,05,19,11,04,12.40
2009,05,19,11,05,12.40
2009,05,19,11,06,12.40
2009,05,19,11,07,12.40
2009,05,19,11,08,12.40
2009,05,19,11,09,12.50
2009,05,19,11,10,12.50
2009,05,19,11,11,12.50
2009,05,19,11,12,12.60
2009,05,19,11,13,12.60
2009,05,19,11,14,12.70
2009,05,19,11,15,12.80
2009,05,19,11,16,12.80
2009,05,19,11,17,12.80
2009,05,19,11,18,12.80
2009,05,19,11,19,12.80
2009,05,19,11,20,12.90
2009,05,19,11,21,12.90
2009,05,19,11,22,13.00
2009,05,19,11,23,13.10
2009,05,19,11,24,13.20
2009,05,19,11,25,13.20
2009,05,19,11,26,13.30
2009,05,19,11,27,13.30
2009,05,19,11,28,13.30
2009,05,19,11,29,13.30
2009,05,19,11,30,13.30
2009,05,19,11,31,13.40
2009,05,19,11,32,13.40
2009,05,19,11,33,13.40
2009,05,19,11,34,13.30
2009,05,19,11,35,13.30
2009,05,19,11,36,13.20
2009,05,19,11,37,13.10
2009,05,19,11,38,13.00
2009,05,19,11,39,12.90
2009,05,19,11,40,12.80
2009,05,19,11,41,12.70
2009,05,19,11,42,12.60
2009,05,19,11,43,12.50
2009,05,19,11,44,12.40
2009,05,19,11,45,12.30
2009,05,19,11,46,12.30
2009,05,19,11,47,12.20
2009,05,19,11,48,12.10
2009,05,19,11,49,12.00
2009,05,19,11,50,11.90
2009,05,19,11,51,11.80
2009,05,19,11,52,11.80
2009,05,19,11,53,11.70
2009,05,19,11,54,11.60
2009,05,19,11,55,11.60
2009,05,19,11,56,11.50
2009,05,19,11,57,11.40
2009,05,19,11,58,11.40
2009,05,19,11,59,11.40
2009,05,19,12,00,11.40
2009,05,19,12,01,11.50
2009,05,19,12,02,11.60
2009,05,19,12,03,11.70
2009,05,19,12,04,11.80
2009,05,19,12,05,11.90
2009,05,19,12,06,12.00
2009,05,19,12,07,12.10
2009,05,19,12,08,12.30
2009,05,19,12,09,12.40
2009,05,19,12,10,12.40
2009,05,19,12,11,12.40
2009,05,19,12,12,12.30
2009,05,19,12,13,12.30
2009,05,19,12,14,12.30
2009,05,19,12,15,12.30
2009,05,19,12,16,12.30
2009,05,19,12,17,12.30
2009,05,19,12,18,12.30
2009,05,19,12,19,12.30
2009,05,19,12,20,12.30
2009,05,19,12,21,12.30
2009,05,19,12,22,12.20
2009,05,19,12,23,12.20
2009,05,19,12,24,12.20
2009,05,19,12,25,12.10
2009,05,19,12,26,12.10
2009,05,19,12,27,12.00
2009,05,19,12,28,12.00
2009,05,19,12,29,12.00
2009,05,19,12,30,12.00
2009,05,19,12,31,11.90
2009,05,19,12,32,11.90
2009,05,19,12,33,11.80
2009,05,19,12,34,11.80
2009,05,19,12,35,11.80
2009,05,19,12,36,11.80
2009,05,19,12,37,11.80
2009,05,19,12,38,11.80
2009,05,19,12,39,11.80
2009,05,19,12,40,11.80
2009,05,19,12,41,11.80
2009,05,19,12,42,11.80
2009,05,19,12,43,11.80
2009,05,19,12,44,11.80
2009,05,19,12,45,11.70
2009,05,19,12,46,11.70
2009,05,19,12,47,11.70
2009,05,19,12,48,11.70
2009,05,19,12,49,11.60
2009,05,19,12,50,11.60
2009,05,19,12,51,11.60
2009,05,19,12,52,11.60
2009,05,19,12,53,11.70
2009,05,19,12,54,11.80
2009,05,19,12,55,11.80
2009,05,19,12,56,12.00
2009,05,19,12,57,12.10
2009,05,19,12,58,12.30
2009,05,19,12,59,12.40
2009,05,19,13,00,12.60
2009,05,19,13,01,12.80
2009,05,19,13,02,13.00
2009,05,19,13,03,13.20
2009,05,19,13,04,13.40
2009,05,19,13,05,13.50
2009,05,19,13,06,13.50
2009,05,19,13,07,13.40
2009,05,19,13,08,13.30
2009,05,19,13,09,13.20
2009,05,19,13,10,13.10
2009,05,19,13,11,13.00
2009,05,19,13,12,13.00
2009,05,19,13,13,12.80
2009,05,19,13,14,12.80
2009,05,19,13,15,12.70
2009,05,19,13,16,12.50
2009,05,19,13,17,12.50
2009,05,19,13,18,12.40
2009,05,19,13,19,12.30
2009,05,19,13,20,12.20
2009,05,19,13,21,12.10
2009,05,19,13,22,12.00
2009,05,19,13,23,12.00
2009,05,19,13,24,11.90
2009,05,19,13,25,11.80
2009,05,19,13,26,11.80
2009,05,19,13,27,11.80
2009,05,19,13,28,11.70
2009,05,19,13,29,11.70
2009,05,19,13,30,11.70
2009,05,19,13,31,11.60
2009,05,19,13,32,11.60
2009,05,19,13,33,11.60
2009,05,19,13,34,11.40
2009,05,19,13,35,11.40
2009,05,19,13,36,11.40
2009,05,19,13,37,11.40
2009,05,19,13,38,11.30
2009,05,19,13,39,11.30
2009,05,19,13,40,11.30
2009,05,19,13,41,11.20
2009,05,19,13,42,11.20
2009,05,19,13,43,11.20
2009,05,19,13,44,11.20
2009,05,19,13,45,11.30
2009,05,19,13,46,11.20
2009,05,19,13,47,11.20
2009,05,19,13,48,11.20
2009,05,19,13,49,11.20
2009,05,19,13,50,11.20
2009,05,19,13,51,11.20
2009,05,19,13,52,11.10
2009,05,19,13,53,11.10
2009,05,19,13,54,11.10
2009,05,19,13,55,11.00
2009,05,19,13,56,10.90
2009,05,19,13,57,10.90
2009,05,19,13,58,10.90
2009,05,19,13,59,10.90
2009,05,19,14,00,10.80
2009,05,19,14,01,10.80
2009,05,19,14,02,10.70
2009,05,19,14,03,10.70
2009,05,19,14,04,10.70
2009,05,19,14,05,10.70
2009,05,19,14,06,10.70
2009,05,19,14,07,10.70
2009,05,19,14,08,10.70
2009,05,19,14,09,10.70
2009,05,19,14,10,10.80
2009,05,19,14,11,10.80
2009,05,19,14,12,10.90
2009,05,19,14,13,10.90
2009,05,19,14,14,10.90
2009,05,19,14,15,10.90
2009,05,19,14,16,11.00
2009,05,19,14,17,11.10
2009,05,19,14,18,11.10
2009,05,19,14,19,11.20
2009,05,19,14,20,11.30
2009,05,19,14,21,11.40
2009,05,19,14,22,11.40
2009,05,19,14,23,11.40
2009,05,19,14,24,11.60
2009,05,19,14,25,11.60
2009,05,19,14,26,11.70
2009,05,19,14,27,11.80
2009,05,19,14,28,11.80
2009,05,19,14,29,11.90
2009,05,19,14,30,12.00
2009,05,19,14,31,12.10
2009,05,19,14,32,12.20
2009,05,19,14,33,12.30
2009,05,19,14,34,12.30
2009,05,19,14,35,12.30
2009,05,19,14,36,12.30
2009,05,19,14,37,12.40
2009,05,19,14,38,12.40
2009,05,19,14,39,12.40
2009,05,19,14,40,12.50
2009,05,19,14,41,12.50
2009,05,19,14,42,12.50
2009,05,19,14,43,12.50
2009,05,19,14,44,12.40
2009,05,19,14,45,12.50
2009,05,19,14,46,12.50
2009,05,19,14,47,12.50
2009,05,19,14,48,12.60
2009,05,19,14,49,12.60
2009,05,19,14,50,12.60
2009,05,19,14,51,12.60
2009,05,19,14,52,12.60
2009,05,19,14,53,12.70
2009,05,19,14,54,12.80
2009,05,19,14,55,12.80
2009,05,19,14,56,12.80
2009,05,19,14,57,12.70
2009,05,19,14,58,12.70
2009,05,19,14,59,12.70
2009,05,19,15,00,12.70
2009,05,19,15,01,12.70
2009,05,19,15,02,12.60
2009,05,19,15,03,12.60
2009,05,19,15,04,12.60
2009,05,19,15,05,12.60
2009,05,19,15,06,12.60
2009,05,19,15,07,12.60
2009,05,19,15,08,12.60
2009,05,19,15,09,12.70
2009,05,19,15,10,12.80
2009,05,19,15,11,12.80
2009,05,19,15,12,12.90
2009,05,19,15,13,13.00
2009,05,19,15,14,13.00
2009,05,19,15,15,13.10
2009,05,19,15,16,13.10
2009,05,19,15,17,13.10
2009,05,19,15,18,13.10
2009,05,19,15,19,13.20
2009,05,19,15,20,13.20
2009,05,19,15,21,13.30
2009,05,19,15,22,13.20
2009,05,19,15,23,13.20
2009,05,19,15,24,13.30
2009,05,19,15,25,13.30
2009,05,19,15,26,13.30
2009,05,19,15,27,13.30
2009,05,19,15,28,13.20
2009,05,19,15,29,13.20
2009,05,19,15,30,13.30
2009,05,19,15,31,13.30
2009,05,19,15,32,13.30
2009,05,19,15,33,13.30
2009,05,19,15,34,13.20
2009,05,19,15,35,13.10
2009,05,19,15,36,13.10
2009,05,19,15,37,13.10
2009,05,19,15,38,13.10
2009,05,19,15,39,13.10
2009,05,19,15,40,13.10
2009,05,19,15,41,13.10
2009,05,19,15,42,13.00
2009,05,19,15,43,13.00
2009,05,19,15,44,12.90
2009,05,19,15,45,12.90
2009,05,19,15,46,12.90
2009,05,19,15,47,12.90
2009,05,19,15,48,12.90
2009,05,19,15,49,12.80
2009,05,19,15,50,12.80
2009,05,19,15,51,12.80
2009,05,19,15,52,12.80
2009,05,19,15,53,12.80
2009,05,19,15,54,12.80
2009,05,19,15,55,12.80
2009,05,19,15,56,12.90
2009,05,19,15,57,12.90
2009,05,19,15,58,13.00
2009,05,19,15,59,13.00
2009,05,19,16,00,13.00
2009,05,19,16,01,13.10
2009,05,19,16,02,13.10
2009,05,19,16,03,13.10
2009,05,19,16,04,13.10
2009,05,19,16,05,13.10
2009,05,19,16,06,13.20
2009,05,19,16,07,13.20
2009,05,19,16,08,13.20
2009,05,19,16,09,13.20
2009,05,19,16,10,13.20
2009,05,19,16,11,13.20
2009,05,19,16,12,13.20
2009,05,19,16,13,13.20
2009,05,19,16,14,13.20
2009,05,19,16,15,13.10
2009,05,19,16,16,13.10
2009,05,19,16,17,13.10
2009,05,19,16,18,13.10
2009,05,19,16,19,13.00
2009,05,19,16,20,13.00
2009,05,19,16,21,12.90
2009,05,19,16,22,12.90
2009,05,19,16,23,12.80
2009,05,19,16,24,12.80
2009,05,19,16,25,12.80
2009,05,19,16,26,12.60
2009,05,19,16,27,12.40
2009,05,19,16,28,12.30
2009,05,19,16,29,12.20
2009,05,19,16,30,12.00
2009,05,19,16,31,11.90
2009,05,19,16,32,11.80
2009,05,19,16,33,11.80
2009,05,19,16,34,11.60
2009,05,19,16,35,11.50
2009,05,19,16,36,11.40
2009,05,19,16,37,11.40
2009,05,19,16,38,11.30
2009,05,19,16,39,11.10
2009,05,19,16,40,11.10
2009,05,19,16,41,11.00
2009,05,19,16,42,10.90
2009,05,19,16,43,10.90
2009,05,19,16,44,10.90
2009,05,19,16,45,10.90
2009,05,19,16,46,10.90
2009,05,19,16,47,10.90
2009,05,19,16,48,10.90
2009,05,19,16,49,10.90
2009,05,19,16,50,10.90
2009,05,19,16,51,11.00
2009,05,19,16,52,11.10
2009,05,19,16,53,11.10
2009,05,19,16,54,11.10
2009,05,19,16,55,11.10
2009,05,19,16,56,11.10
2009,05,19,16,57,11.10
2009,05,19,16,58,11.20
2009,05,19,16,59,11.20
2009,05,19,17,00,11.30
2009,05,19,17,01,11.20
2009,05,19,17,02,11.30
2009,05,19,17,03,11.30
2009,05,19,17,04,11.20
2009,05,19,17,05,11.20
2009,05,19,17,06,11.10
2009,05,19,17,07,11.10
2009,05,19,17,08,11.10
2009,05,19,17,09,11.10
2009,05,19,17,10,11.00
2009,05,19,17,11,10.90
2009,05,19,17,12,10.90
2009,05,19,17,13,10.90
2009,05,19,17,14,11.00
2009,05,19,17,15,11.10
2009,05,19,17,16,11.10
2009,05,19,17,17,11.10
2009,05,19,17,18,11.10
2009,05,19,17,19,11.10
2009,05,19,17,20,11.10
2009,05,19,17,21,11.10
2009,05,19,17,22,11.10
2009,05,19,17,23,11.10
2009,05,19,17,24,11.20
2009,05,19,17,25,11.20
2009,05,19,17,26,11.20
2009,05,19,17,27,11.30
2009,05,19,17,28,11.30
2009,05,19,17,29,11.30
2009,05,19,17,30,11.30
2009,05,19,17,31,11.30
2009,05,19,17,32,11.30
2009,05,19,17,33,11.30
2009,05,19,17,34,11.30
2009,05,19,17,35,11.30
2009,05,19,17,36,11.20
2009,05,19,17,37,11.20
2009,05,19,17,38,11.20
2009,05,19,17,39,11.20
2009,05,19,17,40,11.10
2009,05,19,17,41,11.10
2009,05,19,17,42,11.10
2009,05,19,17,43,11.10
2009,05,19,17,44,11.20